Theta_e
311 313 316 319 317 321 321 324 321 325 325 323 320 337 335 332 330 331 344 351 350 358 362 354 347 339 335 334 337 336 338 342 341 341 343 339 336 339 339 338 334 340 346 347 343 341 341 339 334
312 319 316 318 314 315 316 320 323 321 319 317 319 321 322 323 329 335 345 352 348 356 361 358 346 339 335 332 332 330 334 340 342 343 343 341 339 339 339 336 331 340 345 344 341 339 338 336 332
319 323 315 316 315 314 314 319 319 318 319 319 320 319 320 339 348 347 352 348 350 355 359 360 346 339 336 333 329 328 328 335 341 342 343 341 340 339 336 332 337 343 344 340 338 338 336 334 332
320 322 321 316 315 316 316 318 316 319 320 319 317 320 322 328 328 337 350 353 354 358 359 359 347 340 336 332 329 326 325 330 336 340 341 341 340 337 334 331 341 343 346 342 339 337 336 329 328
316 318 319 319 319 318 316 316 319 319 319 319 316 319 320 332 339 350 355 356 357 358 358 357 348 341 336 333 329 325 323 325 330 335 338 338 337 333 333 332 339 342 349 343 338 338 327 327 327
319 318 317 316 319 320 320 319 319 320 319 318 319 317 322 326 344 352 356 356 357 358 358 357 349 342 336 333 329 326 324 324 327 330 332 332 331 333 330 333 337 341 340 338 337 327 329 330 330
319 318 318 318 320 321 319 316 318 317 318 318 318 318 318 318 348 353 355 357 357 358 358 359 356 347 336 334 330 327 325 325 326 328 329 330 331 331 333 337 339 338 338 338 330 331 330 329 330
319 319 320 320 320 318 320 314 315 315 316 316 316 318 318 318 348 351 354 356 357 358 358 357 358 353 349 340 330 328 327 325 326 329 331 331 330 332 336 337 337 338 339 332 331 331 331 330 330
311 316 317 318 319 317 314 314 313 313 314 314 315 316 315 319 337 346 347 348 355 355 355 355 355 355 351 348 344 330 328 328 329 332 332 334 342 343 341 345 339 337 333 332 331 332 331 331 328
313 312 312 314 313 313 314 313 314 313 313 313 314 315 315 319 327 337 347 343 343 349 354 355 354 353 351 349 349 346 345 344 344 344 343 343 346 347 347 343 336 334 333 333 333 332 331 331 337
310 312 311 310 313 314 314 314 313 313 314 314 314 315 315 315 321 326 331 343 342 345 353 353 352 351 351 348 349 347 346 346 346 347 346 345 342 346 345 344 342 343 337 341 339 339 339 338 341
313 312 313 314 313 313 313 312 313 313 314 314 314 313 314 315 316 322 325 331 338 344 347 352 352 350 351 349 348 347 346 345 343 344 345 343 338 346 345 343 342 343 342 344 342 339 336 338 341
313 313 313 314 314 313 312 312 312 313 313 314 313 314 314 315 314 316 324 330 333 339 344 351 350 350 349 348 348 348 346 345 343 344 342 339 341 344 344 342 340 341 343 343 342 341 340 341 344
312 313 314 314 314 313 313 313 312 313 313 314 314 314 314 314 314 314 321 328 331 334 339 351 351 349 348 348 346 347 348 346 344 343 341 336 341 342 341 341 339 341 344 344 344 343 344 344 344
314 314 314 313 313 314 313 316 313 314 315 315 316 316 315 314 314 315 315 321 328 331 337 349 353 350 349 347 348 348 348 346 344 342 336 338 334 333 339 338 339 344 344 342 345 345 344 344 343
314 313 315 314 313 314 315 316 316 316 317 317 317 316 315 314 314 314 314 314 319 331 336 342 352 351 349 349 348 347 346 345 344 343 340 335 332 332 331 338 344 344 342 345 346 345 344 344 343
313 315 314 314 314 314 316 317 316 316 317 318 318 317 316 315 315 315 315 314 315 323 335 336 348 352 350 348 346 346 344 343 341 340 337 335 332 332 333 339 341 342 342 345 345 343 342 343 341
315 315 315 315 314 315 315 316 316 316 317 318 318 317 317 316 317 316 315 315 316 317 319 335 343 352 351 348 347 347 345 343 342 339 339 334 331 339 339 342 342 341 343 344 344 343 340 339 337
313 313 315 315 314 315 316 316 316 316 317 317 318 317 317 317 317 315 315 315 316 320 333 343 344 346 349 347 345 345 344 343 342 340 337 332 329 338 342 344 341 341 344 344 343 341 338 333 334
313 314 315 315 315 316 316 317 317 317 317 317 317 318 317 317 317 317 315 316 317 320 336 344 346 346 347 348 346 344 343 343 342 341 337 333 330 337 342 343 342 343 344 342 342 340 336 328 328
315 316 316 317 317 317 317 318 317 316 317 317 317 317 317 318 317 317 318 317 317 320 335 344 344 346 345 346 346 343 342 340 342 341 341 339 336 339 342 342 343 343 341 337 336 337 337 331 323
316 315 316 318 319 321 318 320 318 318 318 317 317 317 316 316 316 317 317 317 316 318 332 341 345 344 345 346 345 343 342 342 341 342 343 343 342 344 343 343 341 339 336 335 333 333 332 329 328
316 316 316 316 318 318 318 321 318 317 317 318 317 317 317 316 316 316 317 316 316 316 325 339 345 346 344 345 346 345 342 342 343 343 344 345 344 343 343 341 338 336 334 330 329 326 323 318 321
315 315 315 315 317 320 318 320 318 318 318 317 316 316 314 314 315 315 315 315 315 316 318 334 342 343 343 342 345 345 345 345 344 344 344 343 343 340 338 336 333 332 328 324 321 319 317 315 316
313 315 319 320 324 321 317 319 319 318 317 317 317 316 314 314 316 316 316 316 316 315 317 332 340 342 341 342 345 345 345 344 343 343 342 339 337 336 336 336 334 328 322 318 319 317 315 315 316
314 315 318 320 319 318 315 318 316 316 316 316 316 316 316 318 318 318 318 318 317 317 315 328 337 341 342 343 344 346 345 344 344 342 340 339 338 338 335 331 329 326 322 321 320 315 313 312 310
315 319 317 321 318 319 316 316 316 316 316 318 317 318 319 318 318 319 319 319 319 318 316 321 334 340 340 344 346 346 345 343 341 342 340 337 337 335 333 333 333 328 323 318 314 312 309 307 306
314 314 320 321 322 321 317 316 316 316 315 318 318 318 318 317 317 318 319 320 319 317 315 316 333 339 340 344 345 345 343 342 343 342 338 336 336 333 331 331 329 320 317 314 311 308 307 306 305
315 317 317 319 320 320 318 316 316 316 316 318 318 318 317 316 316 316 317 317 319 319 318 317 330 341 341 343 344 344 343 342 341 339 336 336 332 329 325 323 320 317 314 312 310 308 306 305 306
313 314 316 321 323 321 321 320 315 315 316 317 316 315 315 315 316 316 317 317 319 319 320 319 326 340 340 343 343 342 342 341 339 335 333 331 329 328 329 320 317 316 313 311 310 307 306 305 305
Wind_Speed
4 2 3 2 3 2 5 3 3 4 3 2 7 4 8 8 4 10 5 16 12 24 24 31 37 36 34 33 32 30 30 30 31 29 26 26 26 26 25 23 22 22 17 13 11 9 8 7 6
3 3 3 2 3 6 5 2 6 1 5 10 6 5 4 5 6 7 7 13 17 34 24 25 36 35 33 32 30 28 28 29 29 29 27 25 25 23 23 23 22 21 17 13 10 8 7 6 5
4 3 2 3 3 8 4 3 3 7 8 6 6 4 6 6 16 11 18 9 15 31 26 24 35 33 32 29 28 27 27 28 28 28 26 26 24 23 23 22 22 21 15 12 9 8 6 5 4
1 2 3 3 8 4 2 6 4 9 3 3 8 6 3 14 17 19 14 7 16 23 27 26 34 31 30 28 27 26 26 26 27 26 26 25 24 23 22 22 22 18 13 10 8 7 5 4 3
4 1 2 3 4 3 4 3 5 5 4 6 9 9 12 10 27 14 6 5 14 19 26 28 34 31 29 28 26 25 24 25 25 25 24 23 22 22 21 21 19 15 12 9 6 5 4 3 3
3 0 3 7 4 3 3 6 3 4 5 6 9 13 4 17 25 17 8 2 11 16 20 23 31 30 28 27 25 24 23 24 24 24 24 23 23 21 21 20 17 14 11 9 6 5 4 3 3
2 2 1 3 1 1 2 8 4 4 8 4 15 11 6 17 16 13 10 5 7 12 18 16 18 25 27 26 24 24 23 22 23 23 23 23 22 20 20 17 14 11 9 7 6 4 3 3 3
3 2 5 4 5 5 3 9 5 6 8 13 6 3 9 13 10 8 11 6 5 10 15 16 14 17 16 20 24 24 23 22 21 20 21 20 20 19 17 15 13 11 8 7 6 4 4 4 4
1 2 3 5 5 1 9 9 4 6 7 5 7 13 10 11 8 7 8 10 5 8 12 15 16 14 15 15 16 21 21 20 20 19 19 17 13 13 13 13 12 10 8 7 6 5 4 4 4
1 1 4 1 2 2 6 7 13 7 7 4 9 9 9 8 8 6 4 10 5 4 9 11 14 16 15 13 14 13 14 15 17 16 16 13 11 12 11 10 10 8 7 6 6 5 5 2 3
2 1 3 4 3 4 7 9 5 10 9 8 8 13 13 9 8 5 2 1 9 4 5 11 13 15 15 14 14 13 12 13 14 16 17 15 15 12 10 9 8 7 7 5 5 4 4 3 3
1 3 2 4 4 4 9 5 9 12 12 11 14 12 13 14 12 8 6 4 5 12 10 12 13 16 16 13 15 12 13 12 13 14 16 16 17 13 12 10 9 7 6 5 5 5 6 4 4
2 2 5 8 12 8 10 12 11 11 15 15 11 12 12 16 12 11 7 6 8 10 12 19 18 18 20 17 15 13 14 14 13 14 15 16 14 13 12 10 8 7 5 6 7 6 6 5 3
1 5 9 8 5 5 4 7 2 9 11 12 12 13 14 14 14 13 10 11 12 13 14 19 24 25 24 22 20 19 15 16 15 14 15 17 14 14 12 10 8 6 6 6 6 6 7 6 4
4 9 9 5 2 5 3 10 9 8 9 12 15 14 14 15 17 16 16 13 15 16 17 17 26 29 29 27 25 21 17 15 17 17 17 16 17 16 12 9 8 6 7 9 7 5 3 3 4
6 2 7 9 10 3 5 17 4 11 10 17 16 13 13 15 15 12 12 13 14 15 22 20 23 30 33 32 31 25 22 16 15 15 15 18 17 15 14 10 8 6 5 5 4 3 2 2 1
1 10 14 9 7 10 6 17 6 17 15 15 14 14 13 13 12 16 16 15 12 16 20 21 23 29 33 35 33 29 26 23 18 17 17 17 16 14 14 12 9 8 4 3 5 3 1 2 3
16 17 15 15 8 13 18 23 19 16 17 17 16 14 13 12 14 13 16 18 12 12 18 21 25 25 29 29 29 27 23 22 20 19 16 17 17 16 13 12 11 9 7 5 5 2 1 2 4
13 15 20 18 15 20 20 23 21 19 18 19 18 14 14 14 13 13 14 15 12 12 15 21 25 28 30 26 27 23 23 22 21 20 18 18 19 17 12 11 11 11 9 9 8 5 1 4 2
13 16 18 15 14 19 21 26 24 22 24 23 21 18 15 14 12 11 14 16 13 13 14 18 23 28 34 26 23 23 27 21 24 17 18 20 22 19 16 14 15 13 11 11 7 4 3 3 3
16 14 18 22 19 16 18 20 6 9 16 21 19 18 16 14 13 13 12 15 14 11 15 19 21 23 28 24 19 17 21 15 16 18 17 18 21 19 18 17 15 15 10 8 8 6 3 3 5
17 13 13 13 12 8 7 12 14 14 18 14 16 15 14 14 13 14 13 16 18 15 12 15 17 19 20 24 20 23 25 22 19 21 20 20 21 19 20 18 15 13 11 9 9 11 6 2 2
11 5 8 15 17 18 13 8 4 5 14 15 11 10 10 12 14 15 15 19 20 16 14 13 16 18 20 22 23 23 21 20 28 22 23 20 17 19 20 18 17 14 10 11 14 13 8 5 4
3 7 17 13 7 8 13 13 3 4 6 9 7 4 3 3 9 11 13 15 17 15 14 15 17 21 20 27 25 31 27 24 28 27 27 26 28 22 23 18 15 16 14 15 15 15 10 8 10
11 12 5 4 4 5 2 6 15 13 19 20 15 13 1 4 8 7 9 9 14 13 14 16 19 21 27 30 31 31 31 25 33 33 31 31 30 28 26 23 17 15 15 15 18 13 10 9 10
16 5 4 5 4 7 8 8 3 10 15 12 11 4 1 3 2 4 7 8 13 16 12 17 19 22 29 32 31 24 24 28 30 35 34 34 35 30 29 26 22 19 16 12 13 11 10 10 12
3 6 2 4 11 9 6 7 12 14 12 5 7 7 7 5 5 7 8 8 10 18 12 16 19 22 28 31 33 30 30 30 30 29 32 33 34 31 28 24 23 17 14 15 16 15 15 14 13
13 1 4 4 4 6 6 11 9 12 9 2 5 6 6 4 8 9 10 10 12 14 12 11 18 23 28 29 34 35 31 33 31 31 29 33 33 31 27 25 22 23 21 19 17 18 14 14 13
5 8 7 3 5 5 9 4 2 7 6 7 6 3 4 7 9 11 13 15 15 13 13 8 15 20 23 27 25 33 33 34 32 32 33 36 33 30 25 27 27 26 23 20 18 17 15 16 13
13 14 13 5 5 6 7 14 13 15 10 7 12 12 13 12 12 14 13 16 14 14 14 8 13 21 24 28 28 33 36 33 32 32 34 36 31 28 30 30 26 27 22 20 15 13 14 15 11
Wind_Direction
1 54 104 66 212 268 231 194 285 167 176 3 299 243 292 315 262 288 346 179 151 162 172 177 170 165 163 163 162 158 159 163 162 162 160 157 155 156 157 159 161 165 166 165 166 166 165 166 166
38 89 72 104 220 221 231 201 217 357 318 310 298 248 257 288 319 322 344 188 181 171 174 176 174 168 166 165 164 159 161 166 166 165 164 163 161 160 160 161 164 168 169 171 170 168 165 166 166
102 57 181 161 177 226 243 156 141 318 323 337 338 313 333 356 11 355 330 246 178 169 173 178 176 172 167 169 166 163 164 166 169 170 169 167 165 165 164 165 166 169 171 169 164 164 170 176 182
96 109 96 218 201 218 251 140 344 335 340 39 352 292 23 75 345 326 321 200 183 174 166 178 178 175 170 171 168 166 166 167 169 171 172 171 169 168 169 167 168 171 169 172 170 169 174 177 183
53 98 161 196 219 281 270 273 273 335 330 331 349 327 323 13 358 4 355 175 182 180 163 174 180 177 174 173 171 168 167 168 171 174 175 174 171 168 169 170 170 171 173 175 182 176 174 174 191
97 62 191 225 223 222 256 314 278 358 325 317 349 328 330 1 11 14 12 130 177 176 168 170 180 179 177 176 173 171 170 170 171 173 173 173 170 172 171 172 175 177 177 178 182 182 181 184 210
127 155 165 150 223 238 138 357 33 4 341 314 332 317 318 1 3 23 39 73 157 164 170 165 171 178 180 179 177 175 171 171 172 172 173 173 171 172 172 175 177 180 178 184 188 192 201 217 242
98 93 145 165 194 232 329 339 332 329 315 315 324 316 325 348 356 24 61 54 118 158 169 163 167 167 171 179 181 179 174 171 173 174 176 175 171 171 174 176 179 181 185 190 202 212 233 248 252
144 144 162 168 187 221 349 332 326 303 269 287 280 295 318 332 338 22 77 64 88 140 166 164 161 164 169 176 180 180 176 174 173 173 177 172 166 169 174 176 181 185 186 200 212 235 245 257 274
70 184 166 187 12 325 333 306 315 303 299 259 285 287 318 322 348 351 46 100 89 80 160 167 164 162 171 172 169 167 170 168 166 166 167 170 174 175 176 178 186 194 193 213 237 246 253 263 236
130 99 162 142 358 338 306 298 301 292 282 297 290 308 312 313 323 324 312 127 132 154 170 175 168 172 176 170 174 172 175 176 175 174 170 175 181 180 186 188 191 205 218 222 248 259 246 219 233
249 113 164 317 300 285 281 282 278 277 276 288 290 298 297 305 310 299 292 246 212 179 188 183 177 177 178 174 179 181 182 186 184 184 180 182 187 188 192 197 203 210 221 242 244 236 231 226 256
120 338 292 302 289 269 268 248 256 260 269 282 286 291 282 300 292 288 264 243 226 216 192 185 189 185 181 180 180 184 186 189 193 190 194 193 192 195 199 205 206 214 232 238 238 239 244 254 286
229 275 292 287 278 265 256 275 243 245 262 290 285 285 279 279 282 287 255 237 223 221 203 189 180 191 190 186 192 193 199 193 192 198 205 201 196 199 203 206 211 222 228 235 244 254 261 268 200
295 303 312 207 291 297 278 266 226 260 315 297 303 298 288 264 273 265 261 245 231 227 212 191 186 187 190 191 197 190 196 200 199 204 210 203 203 206 199 202 207 225 236 244 256 272 222 163 173
306 266 312 318 302 243 296 281 286 280 300 296 295 297 297 279 267 269 270 264 241 229 217 204 193 185 190 196 198 195 193 197 207 204 206 209 204 205 198 196 209 222 242 235 234 197 196 178 194
283 306 308 311 287 293 257 291 286 295 291 288 286 291 295 295 267 272 278 272 259 228 224 218 206 196 191 196 198 204 205 207 212 208 205 208 201 196 194 198 206 217 225 210 209 181 208 283 308
310 304 297 294 301 285 284 279 285 280 280 279 280 280 275 275 277 289 284 276 275 238 228 223 209 201 192 190 191 193 204 204 212 213 204 202 196 191 199 208 202 202 192 189 174 167 351 314 322
283 285 287 291 292 293 293 289 287 280 276 269 268 257 262 259 268 278 278 278 282 262 222 212 200 196 189 187 178 172 190 194 204 211 206 201 195 198 203 183 195 188 168 192 176 172 224 356 284
273 279 285 291 293 297 292 285 285 271 260 262 261 258 243 246 248 252 261 274 267 270 244 215 199 192 192 200 189 178 180 191 204 198 195 196 192 189 197 189 190 179 174 181 172 196 162 49 46
273 273 288 299 307 291 290 288 273 282 263 261 259 252 251 246 236 241 247 254 273 252 236 228 209 195 191 184 177 147 177 163 180 195 181 186 189 191 192 195 188 169 169 171 164 140 169 194 46
282 281 296 301 311 307 346 293 286 289 281 275 264 257 251 249 243 255 252 255 259 259 249 236 222 205 198 184 168 165 172 164 183 184 174 177 183 184 183 177 175 161 164 154 139 121 123 158 187
293 310 296 297 289 291 252 259 308 275 281 295 288 262 253 248 235 232 242 244 247 252 250 242 225 208 191 184 178 178 186 181 160 175 165 160 167 170 170 170 162 146 142 136 122 104 102 114 87
1 326 304 292 271 257 260 224 306 285 265 304 306 326 357 241 236 246 250 249 246 244 225 222 214 206 194 185 185 181 177 168 149 161 152 169 170 169 151 150 141 133 138 127 108 104 105 97 90
329 316 298 261 204 259 42 266 251 272 272 292 296 308 299 252 253 252 242 239 257 248 224 205 208 201 193 188 187 182 169 167 161 162 163 160 155 157 146 152 142 133 124 124 102 89 99 94 89
298 247 262 289 263 294 288 254 253 262 280 297 298 317 100 141 347 290 286 273 267 271 221 212 201 200 191 190 189 177 175 179 169 167 165 163 161 157 154 147 135 133 133 115 103 120 110 99 88
166 221 246 267 254 275 233 249 273 268 282 359 26 119 103 62 9 328 312 306 294 281 250 218 197 202 195 194 182 173 172 169 170 169 162 156 158 156 155 150 137 142 138 131 128 123 118 105 89
232 248 229 215 272 271 255 271 264 284 307 291 69 52 57 7 345 337 330 317 316 295 277 224 216 206 195 185 177 165 170 171 171 163 155 156 158 159 155 153 144 138 135 134 130 121 112 102 84
202 229 218 281 261 279 300 269 209 279 306 308 287 289 327 344 337 325 320 317 307 306 303 230 219 195 196 186 178 165 170 174 166 161 155 157 163 159 149 143 141 137 135 133 128 119 111 92 79
262 256 238 236 202 230 278 279 270 276 303 321 315 314 319 324 321 312 304 302 297 305 301 263 207 191 193 166 182 167 167 162 154 152 158 163 155 151 149 143 137 135 132 130 122 115 96 88 81